[[{"header":{"parameterUnit":"m.s-1","parameterCategory":1,"la1":30.2991,"la2":30.254,"lo1":-89.0895,"lo2":-89.0444,"dy":0.0017,"dx":0.0017,"nx":28,"ny":28,"refTime":"2025-01-16T03:00:00:Z","depth":0,"parameterNumber":2,"parameterNumberName":"U-component_of_WINDS"},"data":[0,0,0,0,0,0,0,0,0,0,0,0,0,0,0,0,0,0,0,0,0,0,0,0,0,0,0,0,0,0,0,0,0,0,0,0,0,0,0,0,0,0,0,0,0,0,0,0,0,0,0,0,0,0,0,0,0,0,-0.0655,-0.0655,0,-0.0616,-0.0616,-0.0615,-0.0593,-0.0593,-0.0593,-0.0592,-0.0552,-0.0551,-0.055,0,0,0,0,0,0,0,0,0,0,0,0,0,-0.0709,-0.0708,-0.0655,-0.0655,-0.0654,-0.0616,-0.0616,-0.0615,-0.0593,-0.0593,-0.0593,-0.0592,-0.0552,-0.0551,-0.055,0,0,0,0,0,0,0,0,0,0,0,0,0,-0.0679,-0.0708,-0.0655,-0.0638,-0.0636,-0.0616,-0.0616,-0.0615,-0.0593,-0.0593,-0.0592,-0.0592,-0.0553,-0.0551,-0.055,-0.0543,0,0,-0.0545,-0.0544,0,0,0,0,0,0,0,0,-0.0681,-0.0677,-0.0641,-0.0639,-0.0637,-0.0609,-0.062,-0.0591,-0.0593,-0.0609,-0.0592,-0.0592,-0.0571,-0.0568,-0.0561,-0.0541,-0.0539,-0.0545,-0.0544,-0.0543,-0.0543,0,0,0,0,0,0,0,-0.0683,-0.0679,-0.064,-0.0641,-0.0638,-0.0632,-0.0628,-0.0614,-0.0591,-0.0608,-0.0606,-0.0602,-0.057,-0.0562,-0.056,-0.0539,-0.0545,-0.0544,-0.0543,-0.0542,-0.0512,-0.0512,0,0,0,0,0,0,-0.0688,-0.0681,-0.0641,-0.0638,-0.0659,-0.0632,-0.0627,-0.0618,-0.0591,-0.0587,-0.0602,-0.0601,-0.0565,-0.0562,-0.0558,-0.0549,-0.0543,-0.0542,-0.0541,-0.0511,-0.0512,-0.0512,0,0,0,0,0,0,-0.0689,-0.0684,-0.0642,-0.0659,-0.0653,-0.0631,-0.0622,-0.0618,-0.061,-0.0587,-0.0583,-0.0599,-0.0565,-0.056,-0.0547,-0.0547,-0.0541,-0.054,-0.0511,-0.0512,-0.0512,-0.053,0,0,0,0,0,0,-0.0691,-0.0685,-0.0683,-0.0659,-0.0652,-0.0632,-0.0622,-0.0617,-0.0608,-0.0606,-0.0583,-0.0579,-0.0564,-0.0549,-0.0546,-0.0545,-0.0539,-0.0511,-0.0511,-0.0512,-0.0529,-0.0531,-0.0532,0,0,0,0,0,-0.0693,-0.0689,-0.0683,-0.0678,-0.0649,-0.0632,-0.0628,-0.0612,-0.0608,-0.0605,-0.059,-0.058,-0.0548,-0.0548,-0.0544,-0.0543,-0.0511,-0.0511,-0.0512,-0.0529,-0.0531,-0.0532,0,0,0,0,0,0,-0.0713,-0.0686,-0.0678,-0.0667,-0.0652,-0.0629,-0.0624,-0.0614,-0.06,-0.0599,-0.0579,-0.0574,-0.0563,-0.0551,-0.0552,-0.0535,-0.0528,-0.0528,-0.0543,-0.0544,-0.0546,-0.0549,-0.0537,0,0,0,0,0,-0.0716,-0.0705,-0.0682,-0.0674,-0.0667,-0.0647,-0.0639,-0.0628,-0.0612,-0.0605,-0.0589,-0.0574,-0.056,-0.0552,-0.0538,-0.0528,-0.0522,-0.0525,-0.0526,-0.0527,-0.0527,-0.0521,-0.0522,-0.0512,-0.0512,-0.0512,0,0,-0.0722,-0.0706,-0.07,-0.0678,-0.0665,-0.0654,-0.0642,-0.0631,-0.0622,-0.0603,-0.059,-0.0578,-0.0559,-0.0547,-0.0541,-0.0537,-0.0528,-0.0527,-0.0529,-0.0528,-0.0521,-0.0522,-0.0523,-0.0513,-0.0512,-0.0512,0,0,-0.0728,-0.0715,-0.0707,-0.0694,-0.0675,-0.0662,-0.066,-0.0638,-0.0629,-0.0616,-0.0601,-0.0591,-0.0568,-0.0555,-0.0546,-0.0547,-0.0537,-0.0543,-0.055,-0.0544,-0.0545,-0.0546,-0.0546,-0.0547,-0.0543,-0.0543,-0.0543,0,-0.0738,-0.0721,-0.0704,-0.0694,-0.0684,-0.0667,-0.0659,-0.0647,-0.0625,-0.0618,-0.0614,-0.0585,-0.0571,-0.0557,-0.0557,-0.055,-0.0547,-0.0545,-0.0546,-0.0547,-0.0547,-0.0547,-0.0547,-0.0543,-0.0543,-0.0543,-0.0543,0,-0.0735,-0.0723,-0.0719,-0.0698,-0.0688,-0.0679,-0.066,-0.0652,-0.0641,-0.0629,-0.0615,-0.0598,-0.058,-0.0576,-0.0565,-0.0559,-0.0557,-0.055,-0.0543,-0.0549,-0.0549,-0.0549,-0.0545,-0.0544,-0.0544,-0.0544,0,0,-0.0752,-0.0722,-0.0721,-0.0711,-0.0689,-0.0679,-0.0669,-0.0652,-0.0646,-0.0631,-0.0622,-0.0603,-0.0596,-0.0585,-0.0573,-0.0568,-0.057,-0.0561,-0.056,-0.0564,-0.0563,-0.0569,-0.0569,-0.0563,-0.0563,-0.0563,-0.0564,0,-0.0755,-0.0736,-0.0721,-0.0708,-0.0697,-0.0681,-0.0672,-0.0657,-0.0645,-0.0633,-0.0619,-0.0607,-0.0598,-0.0592,-0.0586,-0.0571,-0.057,-0.0571,-0.0555,-0.0554,-0.056,-0.0569,-0.0575,-0.0577,-0.0564,-0.0564,-0.0564,0,-0.0755,-0.0742,-0.0728,-0.0707,-0.0702,-0.0694,-0.0678,-0.0667,-0.065,-0.0641,-0.0629,-0.0617,-0.0605,-0.0599,-0.0583,-0.0584,-0.0576,-0.0568,-0.0568,-0.0566,-0.056,-0.0568,-0.0578,-0.0578,-0.0564,-0.0564,-0.0564,0,-0.077,-0.0747,-0.0736,-0.0729,-0.0704,-0.0699,-0.0688,-0.0671,-0.0662,-0.0647,-0.0641,-0.0625,-0.0617,-0.0605,-0.0588,-0.0585,-0.0574,-0.0566,-0.0566,-0.0567,-0.0565,-0.0565,-0.0574,-0.0559,-0.0559,-0.0559,-0.0559,0,-0.0775,-0.0767,-0.0743,-0.0736,-0.0727,-0.0709,-0.07,-0.0688,-0.0673,-0.0663,-0.0648,-0.0639,-0.0617,-0.0606,-0.0593,-0.0582,-0.0578,-0.057,-0.0567,-0.0572,-0.0573,-0.0567,-0.0566,-0.0559,-0.0559,-0.0559,-0.0559,0,-0.0789,-0.0773,-0.076,-0.0737,-0.0731,-0.0726,-0.0706,-0.0699,-0.0686,-0.0674,-0.067,-0.0649,-0.0635,-0.0618,-0.0598,-0.0589,-0.0579,-0.0574,-0.0585,-0.0583,-0.0584,-0.0584,-0.0589,-0.0589,-0.0575,-0.0575,-0.0575,0,-0.0794,-0.0787,-0.0765,-0.0757,-0.0747,-0.0735,-0.0726,-0.0708,-0.0699,-0.0679,-0.0674,-0.0659,-0.0646,-0.0624,-0.0607,-0.0592,-0.0586,-0.0589,-0.0584,-0.0589,-0.0587,-0.0587,-0.0587,-0.0591,-0.0591,-0.0591,-0.0591,0,-0.0803,-0.0795,-0.0783,-0.0768,-0.0757,-0.0744,-0.0731,-0.0725,-0.0705,-0.0695,-0.0681,-0.0671,-0.065,-0.0635,-0.0618,-0.0607,-0.0596,-0.0593,-0.0592,-0.0597,-0.0604,-0.0601,-0.0589,-0.0593,-0.0593,-0.0593,-0.0593,-0.0593,-0.0813,-0.0807,-0.079,-0.0777,-0.0764,-0.0752,-0.0744,-0.073,-0.0718,-0.0701,-0.069,-0.0676,-0.0659,-0.0635,-0.0624,-0.0612,-0.0608,-0.0607,-0.0607,-0.0607,-0.0609,-0.0606,-0.0609,-0.0609,-0.0609,-0.0609,-0.0609,0,-0.0822,-0.081,-0.0798,-0.078,-0.077,-0.076,-0.0744,-0.0736,-0.0724,-0.0709,-0.0697,-0.068,-0.0666,-0.0648,-0.0632,-0.0626,-0.0621,-0.0623,-0.0623,-0.0621,-0.0613,-0.0615,-0.0628,-0.0628,-0.0628,-0.0628,-0.0628,-0.0628,-0.0826,-0.0815,-0.0805,-0.0788,-0.0776,-0.0762,-0.0754,-0.0743,-0.0731,-0.0713,-0.0701,-0.069,-0.0673,-0.0656,-0.0643,-0.0638,-0.0633,-0.0636,-0.063,-0.0623,-0.0621,-0.062,-0.0622,-0.0635,-0.0635,-0.0639,-0.0639,-0.0639]},{"header":{"parameterUnit":"m.s-1","parameterCategory":1,"la1":30.2991,"la2":30.254,"lo1":-89.0895,"lo2":-89.0444,"dy":0.0017,"dx":0.0017,"nx":28,"ny":28,"refTime":"2025-01-16T03:00:00:Z","depth":0,"parameterNumber":3,"parameterNumberName":"V-component_of_WINDS"},"data":[0,0,0,0,0,0,0,0,0,0,0,0,0,0,0,0,0,0,0,0,0,0,0,0,0,0,0,0,0,0,0,0,0,0,0,0,0,0,0,0,0,0,0,0,0,0,0,0,0,0,0,0,0,0,0,0,0,0,-1.7187,-1.7187,0,-1.7184,-1.7184,-1.7184,-1.7187,-1.7187,-1.7187,-1.7188,-1.7183,-1.7182,-1.7182,0,0,0,0,0,0,0,0,0,0,0,0,0,-1.7196,-1.7195,-1.7187,-1.7187,-1.7187,-1.7184,-1.7184,-1.7184,-1.7187,-1.7187,-1.7187,-1.7188,-1.7183,-1.7182,-1.7182,0,0,0,0,0,0,0,0,0,0,0,0,0,-1.7192,-1.7195,-1.7187,-1.7188,-1.7188,-1.7184,-1.7184,-1.7184,-1.7187,-1.7187,-1.7187,-1.7188,-1.7183,-1.7182,-1.7182,-1.7176,0,0,-1.7181,-1.7181,0,0,0,0,0,0,0,0,-1.7192,-1.7192,-1.7188,-1.7188,-1.7188,-1.7186,-1.7185,-1.7181,-1.7187,-1.7187,-1.7188,-1.7188,-1.7183,-1.7183,-1.7182,-1.7176,-1.7175,-1.7181,-1.7181,-1.718,-1.718,0,0,0,0,0,0,0,-1.7193,-1.7192,-1.7186,-1.7188,-1.7188,-1.7189,-1.7189,-1.7184,-1.7184,-1.7187,-1.7188,-1.7187,-1.7184,-1.7182,-1.7182,-1.7175,-1.7181,-1.718,-1.718,-1.718,-1.7167,-1.7167,0,0,0,0,0,0,-1.7193,-1.7192,-1.7186,-1.7186,-1.7191,-1.7189,-1.7188,-1.7187,-1.7184,-1.7184,-1.7187,-1.7188,-1.7183,-1.7182,-1.7182,-1.7177,-1.718,-1.718,-1.718,-1.7167,-1.7167,-1.7167,0,0,0,0,0,0,-1.7193,-1.7192,-1.7186,-1.7189,-1.7188,-1.7188,-1.7186,-1.7186,-1.7185,-1.7184,-1.7184,-1.7186,-1.7183,-1.7182,-1.7178,-1.7176,-1.718,-1.718,-1.7167,-1.7167,-1.7167,-1.7165,0,0,0,0,0,0,-1.7193,-1.7192,-1.719,-1.7189,-1.7188,-1.7182,-1.7186,-1.7186,-1.7185,-1.7185,-1.7183,-1.7183,-1.7183,-1.7179,-1.7178,-1.7176,-1.7179,-1.7167,-1.7167,-1.7167,-1.7165,-1.7165,-1.7164,0,0,0,0,0,-1.7193,-1.7188,-1.7189,-1.7189,-1.7185,-1.7182,-1.7182,-1.7182,-1.7185,-1.7182,-1.7182,-1.7183,-1.7177,-1.7178,-1.7177,-1.7175,-1.7168,-1.7167,-1.7167,-1.7165,-1.7165,-1.7164,0,0,0,0,0,0,-1.7187,-1.7188,-1.7189,-1.7183,-1.7183,-1.7183,-1.718,-1.7181,-1.7179,-1.718,-1.718,-1.718,-1.7176,-1.7175,-1.7177,-1.7171,-1.7173,-1.7172,-1.7172,-1.7171,-1.7171,-1.7171,-1.7179,0,0,0,0,0,-1.7185,-1.7183,-1.7184,-1.7178,-1.7178,-1.7179,-1.7178,-1.7179,-1.7178,-1.7177,-1.7177,-1.7176,-1.7174,-1.7172,-1.717,-1.7165,-1.7166,-1.7163,-1.7163,-1.7163,-1.7162,-1.7162,-1.7162,-1.7166,-1.7166,-1.7166,0,0,-1.718,-1.718,-1.7179,-1.7177,-1.7177,-1.7175,-1.7179,-1.7176,-1.7175,-1.7177,-1.7174,-1.7173,-1.7172,-1.7169,-1.7167,-1.7167,-1.7162,-1.7162,-1.7162,-1.7162,-1.7162,-1.7162,-1.7161,-1.7166,-1.7166,-1.7166,0,0,-1.7171,-1.7171,-1.7168,-1.7168,-1.7168,-1.717,-1.7169,-1.7169,-1.717,-1.7167,-1.7169,-1.7168,-1.7164,-1.7164,-1.7163,-1.7158,-1.716,-1.7157,-1.7155,-1.7155,-1.7155,-1.7155,-1.7154,-1.7154,-1.7157,-1.7157,-1.7157,0,-1.7165,-1.7163,-1.7166,-1.7164,-1.7164,-1.7167,-1.7165,-1.7165,-1.7164,-1.7164,-1.7165,-1.7163,-1.7162,-1.7159,-1.7159,-1.7157,-1.7158,-1.7158,-1.7155,-1.7155,-1.7154,-1.7154,-1.7154,-1.7157,-1.7157,-1.7157,-1.7157,0,-1.7157,-1.7156,-1.7153,-1.7155,-1.7154,-1.7152,-1.7155,-1.7154,-1.7156,-1.7158,-1.7156,-1.7156,-1.7155,-1.7154,-1.7155,-1.7153,-1.7154,-1.7155,-1.7157,-1.7154,-1.7154,-1.7154,-1.7157,-1.7157,-1.7157,-1.7157,0,0,-1.7142,-1.7147,-1.7146,-1.7148,-1.715,-1.7149,-1.7148,-1.7149,-1.715,-1.7149,-1.7149,-1.7147,-1.715,-1.7149,-1.715,-1.715,-1.7149,-1.7151,-1.7151,-1.7152,-1.7148,-1.7148,-1.7148,-1.715,-1.715,-1.715,-1.7149,0,-1.7135,-1.7134,-1.7138,-1.7136,-1.7136,-1.7141,-1.714,-1.7142,-1.7143,-1.7144,-1.7146,-1.7145,-1.7147,-1.7147,-1.7147,-1.7149,-1.7148,-1.7149,-1.715,-1.715,-1.7151,-1.7148,-1.7147,-1.7146,-1.7149,-1.7149,-1.7149,0,-1.7126,-1.7128,-1.7127,-1.7132,-1.7132,-1.7131,-1.7134,-1.7134,-1.7136,-1.7138,-1.7139,-1.7141,-1.7142,-1.7143,-1.7144,-1.7145,-1.7146,-1.7147,-1.7147,-1.7148,-1.715,-1.7149,-1.7146,-1.7146,-1.7149,-1.7149,-1.7149,0,-1.7118,-1.712,-1.712,-1.7121,-1.7127,-1.7127,-1.7129,-1.7132,-1.7133,-1.7135,-1.7136,-1.7137,-1.7138,-1.7139,-1.7143,-1.7143,-1.7144,-1.7145,-1.7146,-1.7146,-1.7146,-1.7146,-1.7143,-1.7145,-1.7145,-1.7145,-1.7145,0,-1.711,-1.7109,-1.7117,-1.7117,-1.7118,-1.7122,-1.7122,-1.7125,-1.7128,-1.7129,-1.7133,-1.7134,-1.7137,-1.7139,-1.7141,-1.7143,-1.7143,-1.7144,-1.7145,-1.7145,-1.7145,-1.7146,-1.7146,-1.7145,-1.7145,-1.7145,-1.7145,0,-1.7101,-1.7105,-1.7107,-1.7113,-1.7114,-1.7114,-1.712,-1.712,-1.7123,-1.7125,-1.7126,-1.713,-1.7133,-1.7136,-1.7139,-1.7141,-1.7143,-1.7143,-1.7142,-1.7143,-1.7144,-1.7144,-1.7142,-1.7143,-1.7143,-1.7143,-1.7143,0,-1.7096,-1.7096,-1.7103,-1.7105,-1.7107,-1.711,-1.7112,-1.7117,-1.7119,-1.7123,-1.7124,-1.7127,-1.713,-1.7134,-1.7137,-1.714,-1.7142,-1.7141,-1.7142,-1.7142,-1.7143,-1.7144,-1.7144,-1.7141,-1.7141,-1.7141,-1.7141,0,-1.7087,-1.7091,-1.7094,-1.7099,-1.7101,-1.7105,-1.7109,-1.711,-1.7116,-1.7118,-1.7121,-1.7124,-1.7128,-1.7132,-1.7136,-1.7138,-1.7141,-1.7141,-1.7141,-1.7141,-1.7141,-1.7142,-1.7143,-1.714,-1.714,-1.714,-1.714,-1.714,-1.7081,-1.7082,-1.7089,-1.7093,-1.7097,-1.7101,-1.7103,-1.7107,-1.7111,-1.7116,-1.7118,-1.7122,-1.7127,-1.7133,-1.7135,-1.7138,-1.7139,-1.7139,-1.714,-1.714,-1.7141,-1.714,-1.7139,-1.7139,-1.7139,-1.7139,-1.7139,0,-1.7074,-1.7079,-1.7083,-1.7089,-1.7093,-1.7097,-1.7102,-1.7105,-1.7108,-1.7113,-1.7117,-1.7122,-1.7126,-1.7131,-1.7135,-1.7137,-1.7139,-1.7138,-1.7138,-1.7139,-1.7139,-1.7139,-1.7137,-1.7137,-1.7137,-1.7137,-1.7137,-1.7137,-1.7071,-1.7075,-1.7079,-1.7085,-1.709,-1.7095,-1.7098,-1.7102,-1.7106,-1.7112,-1.7116,-1.712,-1.7125,-1.713,-1.7135,-1.7136,-1.7138,-1.7138,-1.7139,-1.7139,-1.7139,-1.7139,-1.7139,-1.7138,-1.7138,-1.714,-1.714,-1.714]}]]